Preview of NWS' New Version of Forecast
This preview is not operational and should not be used for support decisions.
Latest weather observations around

College Park Airport (KCGS)

Using English Units (Switch to International System of Units)
Date/ Time (EDT) Wind (mph) Vis. (mi) Weather Sky Cond. Temp (°F) Rel. Humidity Wind Chill (°F) Heat Index (°F) Pressure Precip. (in)
Air Dwpt 6 hour Altimeter (inHg) Sea level (inHg) 1 hr 3 hr 6 hr
Max Min
Jun 18 08:57 Calm 10 Clear CLR 79 70     73%   82 30.06        
Jun 18 08:37 Calm 5 Clear CLR 78 70     75%   80 30.05        
Jun 18 08:17 Calm 10 Clear CLR 77 70     78%   78 30.06        
Jun 18 07:57 Calm 10 Clear CLR 76 69     80%   77 30.06        
Jun 18 07:37 Calm 10 Clear CLR 73 69     85%   74 30.06        
Jun 18 07:17 Calm 10 Clear CLR 71 68     90%   72 30.06        
Jun 18 06:57 Calm 10 Clear CLR 70 67     92%     30.07        
Jun 18 06:37 Calm 10 Clear CLR 68 67     96%     30.06        
Jun 18 06:17 Calm 7 Clear CLR 68 67     96%     30.06        
Jun 18 05:57 Calm 10 Clear CLR 68 67     95%     30.06        
Jun 18 05:37 Calm 10 Clear CLR 68 67     96%     30.06        
Jun 18 05:17 Calm 10 Clear CLR 68 67     95%     30.06        
Jun 18 04:57 Calm 10 Clear CLR 68 67     94%     30.07        
Jun 18 04:37 Calm 10 Clear CLR 69 67     92%     30.06        
Jun 18 04:17 Calm 10 Partly Cloudy SCT070 SCT080 69 67     95%     30.07        
Jun 18 03:57 Calm 10 Partly Cloudy SCT070 69 67     94%     30.07        
Jun 18 03:37 Calm 10 Clear CLR 69 67     91%     30.07        
Jun 18 03:17 Calm 10 Clear CLR 70 67     92%     30.07        
Jun 18 02:57 Calm 10 Clear CLR 69 67     91%     30.07        
Jun 18 02:37 Calm 10 Clear CLR 69 66     90%     30.07        
Jun 18 02:17 Calm 10 Clear CLR 70 66     87%   71 30.06        
Jun 18 01:57 Calm 10 Clear CLR 71 67     88%   72 30.07        
Jun 18 01:37 Calm 10 Clear CLR 71 67     85%   72 30.07        
Jun 18 01:17 Calm 10 Clear CLR 72 67     82%   73 30.07        
Jun 18 00:57 Calm 10 Clear CLR 72 66     81%   73 30.07        
Jun 18 00:37 Calm 10 Clear CLR 74 65     75%   74 30.06        
Jun 18 00:17 Calm 10 Clear CLR 74 65     73%   75 30.06        
Jun 17 23:57 Calm 10 Clear CLR 76 65     69%   77 30.07        
Jun 17 23:37 SSE 3 10 Clear CLR 79 64     62%   79 30.06        
Jun 17 23:17 Calm 10 Clear CLR 77 65     66%   78 30.07        
Jun 17 22:57 Calm 10 Partly Cloudy SCT050 75 65     71%   76 30.07        
Jun 17 22:37 Calm 10 Mostly Cloudy BKN050 BKN110 76 66     70%   77 30.07        
Jun 17 22:17 Calm 10 Mostly Cloudy BKN100 80 66     63%   81 30.07        
Jun 17 21:57 Calm 10 Cloudy OVC090 80 65     62%   81 30.07        
Jun 17 21:37 Calm 10 Cloudy SCT070 OVC100 80 67     65%   82 30.07        
Jun 17 21:17 Calm 10 Cloudy SCT050 OVC100 79 67     67%   80 30.06        
Jun 17 20:57 Calm 10 Mostly Cloudy BKN100 81 66     60%   83 30.06        
Jun 17 20:37 Calm 10 Partly Cloudy SCT100 82 65     57%   84 30.05        
Jun 17 20:17 Calm 10 Cloudy OVC100 83 65     56%   85 30.04        
Jun 17 19:57 ESE 3 10 Cloudy OVC100 83 66     56%   86 30.04        
Jun 17 19:37 ESE 5 10 Mostly Cloudy SCT060 BKN100 84 67     58%   87 30.04        
Jun 17 19:17 E 5 10 Mostly Cloudy BKN060 84 68     58%   88 30.04        
Jun 17 18:57 Calm 10 Cloudy OVC060 86 67     53%   89 30.03        
Jun 17 18:37 SSE 5 10 Mostly Cloudy BKN050 87 67     51%   90 30.03        
Jun 17 18:17 SSE 3 10 Partly Cloudy SCT050 87 67     50%   90 30.03        
Jun 17 17:57 Calm 10 Clear CLR 88 67     49%   91 30.03        
Jun 17 17:37 SSW 3 10 Clear CLR 88 67     49%   91 30.03        
Jun 17 17:17 Calm 10 Clear CLR 88 66     49%   91 30.04        
Jun 17 16:57 S 3 10 Clear CLR 88 67     50%   91 30.04        
Jun 17 16:37 Calm 10 Clear CLR 88 66     49%   90 30.04        
Jun 17 16:17 Calm 10 Partly Cloudy SCT070 88 67     50%   91 30.05        
Jun 17 15:57 S 3 10 Mostly Cloudy BKN070 87 66     49%   90 30.05        
Jun 17 15:37 SSE 6 10 Mostly Cloudy BKN070 87 64     47%   89 30.05        
Jun 17 15:17 Calm 10 Partly Cloudy SCT070 89 66     46%   92 30.05        
Jun 17 14:57 SW 3 10 Partly Cloudy SCT060 88 64     45%   90 30.05        
Jun 17 14:37 SSW 3 10 Mostly Cloudy BKN050 89 66     46%   91 30.05        
Jun 17 14:17 SE 5 10 Mostly Cloudy BKN050 87 66     49%   90 30.06        
Jun 17 13:57 E 5 10 Partly Cloudy SCT050 86 66     51%   88 30.07        
Jun 17 13:37 NNE 5 10 Clear CLR 87 66     49%   90 30.07        
Jun 17 13:17 E 3 10 Partly Cloudy SCT075 SCT085 86 65     48%   88 30.08        
Jun 17 12:57 Calm 10 Partly Cloudy SCT075 86 66     51%   88 30.08        
Jun 17 12:37 Calm 10 Clear CLR 86 64     48%   87 30.08        
Jun 17 12:17 ENE 3 10 Clear CLR 86 65     49%   87 30.08        
Jun 17 11:57 ESE 5 10 Clear CLR 86 64     49%   87 30.08        
Jun 17 11:37 ESE 5 10 Clear CLR 84 63     49%   85 30.09        
Jun 17 11:17 ESE 5 10 Mostly Cloudy BKN090 83 66     56%   85 30.09        
Jun 17 10:57 Calm 10 Cloudy SCT070 OVC090 81 67     61%   84 30.09        
Jun 17 10:37 Calm 10 Cloudy BKN070 OVC090 79 67     67%   80 30.1        
Jun 17 10:17 Calm 10 Mostly Cloudy BKN070 BKN090 79 67     67%   80 30.1        
Jun 17 09:57 Calm 10 Mostly Cloudy BKN090 78 67     68%   79 30.09        
Jun 17 09:37 Calm 10 Mostly Cloudy SCT090 BKN110 77 66     69%   78 30.09        
Jun 17 09:17 Calm 10 Cloudy OVC110 76 67     72%   77 30.09        
Jun 17 08:57 Calm 10 Cloudy OVC110 76 66     73%   76 30.09        
Jun 17 08:37 Calm 10 Cloudy OVC110 75 66     74%   75 30.08        
Jun 17 08:17 Calm 10 Mostly Cloudy BKN100 74 65     74%   75 30.07        
Jun 17 07:57 Calm 10 Clear CLR 74 66     74%   75 30.07        
Jun 17 07:37 Calm 10 Clear CLR 73 65     75%   74 30.06        
Jun 17 07:17 Calm 10 Partly Cloudy SCT090 71 66     83%   72 30.06        
Jun 17 06:57 Calm 10 Partly Cloudy SCT090 69 65     86%     30.05        
Jun 17 06:37 Calm 10 Clear CLR 68 64     86%     30.05        
Jun 17 06:17 Calm 10 Clear CLR 67 64     88%     30.05        
Jun 17 05:57 Calm 10 Clear CLR 67 63     88%     30.04        
Jun 17 05:37 Calm 10 Partly Cloudy SCT080 68 64     89%     30.03        
Jun 17 05:17 Calm 10 Partly Cloudy SCT080 68 64     87%     30.03        
Jun 17 04:57 Calm 10 Partly Cloudy SCT075 68 63     84%     30.03        
Jun 17 04:37 Calm 10 Partly Cloudy SCT075 68 64     87%     30.03        
Jun 17 04:17 Calm 10 Partly Cloudy SCT090 SCT110 68 63     86%     30.03        
Jun 17 03:57 Calm 10 Partly Cloudy SCT090 68 63     85%     30.03        
Jun 17 03:37 Calm 10 Partly Cloudy SCT090 SCT120 68 63     86%     30.04        
Jun 17 03:17 Calm 10 Partly Cloudy SCT090 SCT120 68 64     86%     30.04        
Jun 17 02:57 Calm 10 Mostly Cloudy BKN090 67 63     88%     30.04        
Jun 17 02:37 Calm 10 Partly Cloudy SCT090 SCT120 67 63     85%     30.04        
Jun 17 02:17 Calm 10 Partly Cloudy SCT120 66 63     88%     30.04        
Jun 17 01:57 Calm 10 Clear CLR 66 63     89%     30.04        
Jun 17 01:37 Calm 10 Clear CLR 67 63     87%     30.04        
Jun 17 01:17 Calm 10 Clear CLR 67 63     87%     30.05        
Jun 17 00:57 Calm 10 Clear CLR 67 63     87%     30.06        
Jun 17 00:37 Calm 10 Clear CLR 67 63     86%     30.06        
Jun 17 00:17 Calm 10 Clear CLR 67 63     87%     30.06        
Jun 16 23:57 Calm 10 Clear CLR 67 63     86%     30.05        
Jun 16 23:37 Calm 10 Clear CLR 68 62     81%     30.05        
Jun 16 23:17 Calm 10 Clear CLR 68 62     81%     30.04        
Jun 16 22:57 Calm 10 Clear CLR 69 62     77%     30.04        
Jun 16 22:37 Calm 10 Clear CLR 69 62     78%     30.04        
Jun 16 22:17 Calm 10 Clear CLR 70 62     77%     30.04        
Jun 16 21:57 Calm 10 Clear CLR 70 62     75%   71 30.03        
Jun 16 21:37 Calm 10 Clear CLR 71 61     71%   71 30.02        
Jun 16 21:17 Calm 10 Clear CLR 72 61     67%   72 30.02        
Jun 16 20:57 Calm 10 Clear CLR 73 60     63%   73 30.02        
Jun 16 20:37 Calm 10 Clear CLR 75 59     57%   75 30.01        
Jun 16 20:17 Calm 10 Clear CLR 78 60     54%   78 30.01        
Jun 16 19:57 Calm 10 Clear CLR 81 58     45%   81 30.01        
Jun 16 19:37 NNW 5 10 Clear CLR 82 57     42%   82 30        
Jun 16 19:17 W 5 10 Clear CLR 83 56     40%   83 30        
Jun 16 18:57 W 6 10 Clear CLR 84 55     37%   83 30        
Jun 16 18:37 WNW 3 10 Clear CLR 85 54     35%   83 30        
Jun 16 18:17 W 3 10 Clear CLR 84 53     34%   83 30        
Jun 16 17:57 W 5 10 Clear CLR 85 53     34%   83 30        
Jun 16 17:37 W 3 10 Clear CLR 85 53     34%   83 29.99        
Jun 16 17:17 Calm 10 Clear CLR 85 53     33%   83 29.99        
Jun 16 16:57 W 5 10 Clear CLR 85 53     34%   83 30        
Jun 16 16:37 N 5 10 Clear CLR 85 53     33%   83 30        
Jun 16 16:17 Calm 10 Partly Cloudy SCT120 85 52     32%   83 30        
Jun 16 15:57 WSW 6 10 Partly Cloudy SCT110 85 51     31%   83 30.01        
Jun 16 15:37 WNW 7 10 Partly Cloudy SCT110 85 51     31%   83 30.02        
Jun 16 15:17 NW 7 10 Clear CLR 84 50     30%   82 30.02        
Jun 16 14:57 Calm 10 Clear CLR 84 51     32%   82 30.02        
Jun 16 14:37 SW 7 10 Clear CLR 84 51     32%   82 30.02        
Jun 16 14:17 WNW 5 10 Clear CLR 83 50     32%   82 30.03        
Jun 16 13:57 NW 6 10 Clear CLR 83 52     34%   82 30.03        
Jun 16 13:37 Calm 10 Clear CLR 83 51     33%   81 30.04        
Jun 16 13:17 W 5 10 Clear CLR 82 52     35%   81 30.05        
Jun 16 12:57 NW 3 10 Clear CLR 81 51     34%   80 30.04        
Jun 16 12:37 Calm 10 Clear CLR 82 55     40%   81 30.05        
Jun 16 12:17 Calm 10 Clear CLR 81 53     38%   80 30.05        
Jun 16 11:57 S 5 10 Clear CLR 80 54     41%   80 30.06        
Jun 16 11:37 WSW 5 10 Clear CLR 80 54     41%   80 30.07        
Jun 16 11:17 Calm 10 Clear CLR 79 53     40%   79 30.07        
Jun 16 10:57 S 5 10 Clear CLR 79 52     38%   79 30.07        
Jun 16 10:37 S 6 10 Clear CLR 79 50     37%   78 30.07        
Jun 16 10:17 SSE 5 10 Clear CLR 78 54     43%   77 30.06        
Jun 16 09:57 Calm 10 Clear CLR 76 53     44%   76 30.07        
Jun 16 09:37 Calm 10 Clear CLR 76 54     46%   76 30.07        
Jun 16 09:17 WSW 3 10 Clear CLR 74 56     52%   74 30.07        
Jun 16 08:57 Calm 10 Clear CLR 72 58     60%   72 30.08        
Jun 16 08:37 Calm 10 Clear CLR 70 59     67%   70 30.08        
Jun 16 08:17 Calm 10 Clear CLR 69 58     68%     30.08        
Jun 16 07:57 Calm 10 Clear CLR 67 58     73%     30.08        
Jun 16 07:37 Calm 10 Clear CLR 63 58     83%     30.08        
Jun 16 07:17 Calm 10 Clear CLR 61 57     86%     30.07        
Jun 16 06:57 Calm 10 Clear CLR 59 56     90%     30.07        
Jun 16 06:37 Calm 10 Clear CLR 57 55     92%     30.07        
Jun 16 06:17 Calm 10 Clear CLR 56 54     95%     30.07        
Jun 16 05:57 Calm 10 Clear CLR 56 54     94%     30.07        
Jun 16 05:37 Calm 10 Clear CLR 56 54     96%     30.06        
Jun 16 05:17 Calm 10 Clear CLR 56 55     96%     30.06        
Jun 16 04:57 Calm 10 Clear CLR 56 55     95%     30.06        
Jun 16 04:37 Calm 10 Clear CLR 56 55     96%     30.06        
Jun 16 04:17 Calm 10 Clear CLR 57 55     96%     30.06        
Jun 16 03:57 Calm 10 Clear CLR 57 55     94%     30.06        
Jun 16 03:37 Calm 10 Clear CLR 57 56     95%     30.05        
Jun 16 03:17 Calm 10 Clear CLR 57 56     96%     30.05        
Jun 16 02:57 Calm 10 Clear CLR 57 56     94%     30.05        
Jun 16 02:37 Calm 10 Clear CLR 58 56     93%     30.04        
Jun 16 02:17 Calm 10 Clear CLR 58 56     93%     30.04        
Jun 16 01:57 Calm 10 Clear CLR 58 56     93%     30.04        
Jun 16 01:37 Calm 10 Clear CLR 59 56     92%     30.04        
Jun 16 01:17 Calm 10 Clear CLR 59 56     90%     30.03        
Jun 16 00:57 Calm 10 Clear CLR 59 56     90%     30.03        
Jun 16 00:37 Calm 10 Clear CLR 60 56     86%     30.03        
Jun 16 00:17 Calm 10 Clear CLR 60 56     86%     30.03        
Jun 15 23:57 Calm 10 Clear CLR 61 56     83%     30.03        
Jun 15 23:37 Calm 10 Clear CLR 62 56     80%     30.03        
Jun 15 23:17 Calm 10 Clear CLR 61 56     83%     30.02        
Jun 15 22:57 Calm 10 Clear CLR 63 55     76%     30.02        
Jun 15 22:37 Calm 10 Clear CLR 64 55     72%     30.01        
Jun 15 22:17 Calm 10 Clear CLR 64 55     74%     30.01        
Jun 15 21:57 Calm 10 Clear CLR 65 56     72%     30.01        
Jun 15 21:37 Calm 10 Clear CLR 66 56     69%     30        
Jun 15 21:17 Calm 10 Clear CLR 67 56     67%     29.99        
Jun 15 20:57 Calm 10 Clear CLR 68 55     63%     29.99        
Jun 15 20:37 Calm 10 Clear CLR 71 53     53%   70 29.99        
Jun 15 20:17 Calm 10 Clear CLR 73 54     51%   73 29.98        
Jun 15 19:57 Calm 10 Clear CLR 76 51     40%   76 29.98        
Jun 15 19:37 N 3 10 Clear CLR 78 51     40%   77 29.98        
Jun 15 19:17 NNE 5 10 Clear CLR 79 51     39%   78 29.98        
Jun 15 18:57 NNE 5 10 Clear CLR 79 52     39%   78 29.97        
Jun 15 18:37 N 8 10 Clear CLR 80 52     38%   79 29.98        
Jun 15 18:17 N 9 10 Clear CLR 80 51     36%   79 29.97        
Jun 15 17:57 NE 7 10 Clear CLR 81 52     37%   80 29.97        
Jun 15 17:37 N 6 10 Partly Cloudy SCT085 80 52     38%   80 29.97        
Jun 15 17:17 NNE 6 10 Mostly Cloudy SCT075 BKN090 81 51     36%   80 29.97        
Jun 15 16:57 N 5 10 Mostly Cloudy BKN075 81 51     36%   80 29.96        
Jun 15 16:37 N 7 10 Mostly Cloudy SCT075 BKN090 80 51     37%   79 29.97        
Jun 15 16:17 W 7 10 Partly Cloudy SCT085 SCT090 82 52     36%   81 29.97        
Jun 15 15:57 NW 5 10 Clear CLR 81 50     35%   80 29.97        
Jun 15 15:37 NNW 6 10 Clear CLR 81 49     34%   80 29.98        
Jun 15 15:17 NNW 6 10 Clear CLR 80 49     34%   79 29.98        
Jun 15 14:57 NNW 13 10 Clear CLR 80 50     35%   79 29.98        
Jun 15 14:37 W 3 10 Clear CLR 80 49     34%   79 29.97        
Jun 15 14:17 N 6 10 Clear CLR 79 49     35%   78 29.97        
Jun 15 13:57 NNW 9 10 Clear CLR 79 49     35%   78 29.98        
Jun 15 13:37 NNW 8 10 Clear CLR 79 49     36%   78 29.98        
Jun 15 13:17 NNE 3 10 Clear CLR 79 50     36%   78 29.99        
Jun 15 12:57 NNW 5 10 Clear CLR 78 49     36%   77 29.99        
Jun 15 12:37 NNE 6 10 Clear CLR 78 50     38%   77 29.99        
Jun 15 12:17 NNE 8 10 Clear CLR 77 49     37%   77 29.99        
Jun 15 11:57 Calm 10 Clear CLR 76 48     37%   75 29.99        
Jun 15 11:37 NW 5 10 Clear CLR 76 50     40%   75 30        
Jun 15 11:17 W 6 10 Clear CLR 75 50     41%   75 30.01        
Jun 15 10:57 N 5 10 Clear CLR 75 51     42%   75 30.01        
Jun 15 10:37 N 6 10 Clear CLR 74 49     41%   74 30.01        
Jun 15 10:17 NW 9 10 Clear CLR 75 49     40%   74 30.01        
Jun 15 09:57 N 8 10 Clear CLR 74 50     42%   73 30.01        
Jun 15 09:37 N 7 10 Clear CLR 74 50     42%   73 30        
Jun 15 09:17 N 5 10 Clear CLR 73 51     46%   73 30        
Jun 15 08:57 NW 7 10 Clear CLR 72 51     48%   71 30        
Jun 15 08:37 N 7 10 Clear CLR 71 51     50%   70 29.99        
Jun 15 08:17 N 3 10 Clear CLR 70 53     54%   69 29.99        
Jun 15 07:57 Calm 10 Clear CLR 68 57     68%     29.99        
Notice The following observation data may not be complete
Jun 15 07:17 Calm 10 Clear CLR   57      %     29.99        
May 15 12:37 S 5 10 Clear CLR 81 69     67%   84 29.91        
May 15 03:17 Calm 10 Clear CLR 65 62     90%     29.95        
May 14 13:37 Calm 7 Partly Cloudy SCT016 72 64     77%   72 30.02        
May 14 12:57 Calm 7 Mostly Cloudy BKN012 69 62     79%     30.02        
May 14 11:17 Calm 5 Cloudy OVC006 63 60     89%     30.03        
May 14 07:57 Calm 1.25 Cloudy OVC002 59 58     98%     30.03        
May 14 04:17 Calm 2.5 Cloudy OVC004 59 58     97%     29.98        
May 14 03:37 Calm 5 Cloudy OVC006 59 58     96%     29.97        
May 14 01:37 Calm 7 Cloudy OVC008 60 58     96%     30.02        
May 13 21:37 N 3 7 Cloudy OVC006 60 58     93%     30.05        
May 13 18:37 ESE 5 7 Cloudy OVC006 60 57     91%     30.02        
May 13 15:17 E 9 2.5 Cloudy OVC004 60 59     95%     30.06        
May 13 12:17 Calm 10 Cloudy BKN008 OVC013 67 63     89%     30.08        
May 12 21:57 Calm 7 Clear CLR 67 64     88%     30.03        
Notice The following observation data may not be complete
May 12 16:37   10 Clear CLR          %              
May 12 12:57 Calm 10 Clear CLR 79 63     59%   79 30.02        
May 12 01:17 Calm 10 Clear CLR 62 55     79%     30.04        
May 11 22:57 Calm 10 Partly Cloudy SCT100 62 56     80%     30.08        
May 11 22:17 Calm 10 Clear CLR 65 56     74%     30.07        
Notice The following observation data may not be complete
May 11 21:17 Calm 10 Clear CLR   54      %     30.05        
May 11 10:17 NW 8 10 Clear CLR 74 55     51%   74 30.02        
Notice The following observation data may not be complete
Jun 12 06:33   10 Mostly Cloudy BKN080          %              
Jun 12 03:33 Calm 10 Clear CLR 68 65     91%     30.05        
Notice The following observation data may not be complete
Jun 12 02:33 Calm 10 Clear CLR   67      %     30.05        
Jun 11 22:53 Calm 10 Clear CLR 75 65     72%   76 30.07        
Notice The following observation data may not be complete
Jun 11 21:13   10 Clear CLR          %              
Jun 11 06:13 Calm 10 Clear CLR 64 62     91%     30.1        
Notice The following observation data may not be complete
Jun 11 02:13   10 Clear CLR          %              
Notice The following observation data may not be complete
Jun 11 01:33 Calm 10 Clear CLR   61      %     30.07        
Jun 11 01:13 Calm 10 Clear CLR 69 61     77%     30.07        
Notice The following observation data may not be complete
Jun 11 00:13 Calm 10 Clear CLR   61      %     30.07        
Jun 10 22:33 Calm 10 Clear CLR 71 62     71%   72 30.07        
Notice The following observation data may not be complete
Jun 10 12:33   10 Clear CLR          %              
Jun 10 11:33 S 3 10 Clear CLR 82 53     36%   81 30.05        
Jun 10 09:33 Calm 10 Clear CLR 74 59     59%   74 30.04        
Notice The following observation data may not be complete
Jun 10 04:33 Calm 10 Clear CLR   56      %     29.98        
Jun 09 21:33 Calm 10 Clear CLR 67 54     62%     29.92        
Jun 09 17:33 WSW 5 10 Partly Cloudy SCT075 80 51     35%   80 29.84        
Jun 09 13:53 WNW 9 10 Partly Cloudy SCT065 SCT080 79 52     39%   78 29.85        
Notice The following observation data may not be complete
Jun 09 13:33   10 Mostly Cloudy BKN065          %              
Jun 09 12:53 WNW 9 10 Partly Cloudy SCT060 SCT070 77 52     41%   77 29.86        
Jun 09 09:53 WNW 9 10 Clear CLR 71 54     55%   70 29.85        
Notice The following observation data may not be complete
Jun 09 07:33   10 Clear CLR          %              
Jun 09 00:53 Calm 10 Clear CLR 54 51     90%     29.83        
Jun 08 15:53 N 5 10 Mostly Cloudy BKN075 72 47     42%   71 29.9        
Jun 08 14:53 NNE 7 10 Clear CLR 71 44     38%   70 29.92        
Jun 08 12:53 NE 8 10 Clear CLR 68 49     50%     29.96        
Jun 08 01:53 Calm 10 Clear CLR 51 50     97%     30.04        
Jun 07 22:53 Calm 10 Clear CLR 54 52     93%     30.05        
Jun 07 22:13 Calm 10 Clear CLR 54 52     92%     30.04        
Jun 07 11:53 NE 3 10 Cloudy SCT016 BKN023 OVC070 62 54     76%     29.99        
Jun 07 11:33 E 8 10 Cloudy BKN018 BKN023 OVC060 62 54     75%     29.98        
Jun 06 11:13 NW 9 10 Partly Cloudy SCT047 72 53     51%   71 29.76        
Notice The following observation data may not be complete
Jun 06 10:33   10 Clear CLR          %              
Jun 06 08:13 NNW 11 10 Partly Cloudy SCT025 69 59     71%     29.74        
Jun 06 07:13 NNW 6 10 Clear CLR 66 59     78%     29.72        
Notice The following observation data may not be complete
Jun 06 03:33   2.5 Mostly Cloudy BKN048          %              
Jun 06 00:13 Calm 3 Partly Cloudy SCT065 64 64     98%     29.68        
Notice The following observation data may not be complete
Jun 05 23:33   7 Clear CLR          %